Location: *
(34.8620°S, 39.3380°E)
Time: 02:54:06
(UTC+00:00)

Cosmos 1300 - Pass Details

Date: 04 December 2021
Orbit: 509 x 511 km, 82.5° (Epoch: 22 January)

Event Time Altitude Azimuth Distance (km) Brightness Sun altitude
Exits shadow 21:42:17 18° 153° (SSE) 1,346 5.4 -32.4°
Drops below altitude 10° 21:43:22 10° 160° (SSE) 1,760 6.2 -32.3°
Sets 21:45:34 0° 166° (SSE) 2,655 7.4 -32.3°
